Regional Weather Roundup
Issued by NWS State College, PA

Home | Current Version | Previous Version | Text Only | Print | Product List | Glossary On
Versions: 1 2 3 4 5 6 7 8 9 10 11 12 13 14 15 16 17 18 19 20 21 22 23 24 25 26 27 28 29 30 31 32 33 34 35 36 37 38 39 40 41 42 43 44 45 46 47 48 49 50
000
ASUS41 KCTP 040803
RWRCTP

REGIONAL WEATHER ROUNDUP
NATIONAL WEATHER SERVICE STATE COLLEGE PA
400 AM EDT FRI SEP 04 2015

Note: "fair" indicates few or no clouds below 12,000 feet with no
significant weather and/or obstructions to visibility.

* = STATION THAT DOES NOT REPORT PRECIPITATION /E.G. RAIN...SNOW...ETC/
    THUNDER OR FOG.

PAZ002>004-007>009-013>016-020>023-029>032-040900-
WESTERN PENNSYLVANIA

CITY           SKY/WX    TMP DP  RH WIND       PRES   REMARKS
ERIE           MOCLDY    71  67  87 S3        29.99S FOG
MEADVILLE      CLEAR     67  64  90 W3        30.03R FOG
FRANKLIN*      MOCLDY    64  63  94 CALM      30.04S
NEW CASTLE     FOG       65  65 100 CALM      30.03R VSB 1
BEAVER COUNTY  NOT AVBL
BUTLER*        PTCLDY    66  64  94 CALM      30.04R
PITTSBURGH INT CLOUDY    70  66  87 NW6       30.01S
PITTSBURGH     PTCLDY    68  63  84 W5        30.01R HAZE
INDIANA*       CLEAR     66  66 100 CALM      30.05R FOG
LATROBE        NOT AVBL
WASHINGTON CO* PTCLDY    64  64 100 CALM      30.03S
$$

PAZ004>006-010>012-017>019-024>028-033>037-041-042-045-046-049>053-040900-
CENTRAL PENNSYLVANIA

CITY           SKY/WX    TMP DP  RH WIND       PRES   REMARKS
BRADFORD       FOG       61  60  97 CALM      30.05S VSB 1/4
DUBOIS         FAIR      65  61  87 E3        30.02S FOG
CLEARFIELD     FAIR      63  61  93 CALM      30.03R FOG
JOHNSTOWN      CLEAR     66  63  90 CALM      30.06R FOG
ALTOONA        CLEAR     66  64  93 CALM      30.02R FOG
STATE COLLEGE  FAIR      66  64  94 CALM      30.00S
WILLIAMSPORT   CLEAR     69  66  90 W3        29.97R
SELINSGROVE    PTCLDY    66  64  93 CALM      29.97R FOG
FT INDIANTOWN  NOT AVBL
CAPITAL CITY   CLEAR     71  67  87 W5        29.94R
HARRISBURG     MOCLDY    74  68  81 NW5       29.93R
YORK           CLEAR     65  64  97 CALM      29.94R FOG
$$

PAZ038>040-043-044-047-048-054-055-060>062-067>071-040900-
EASTERN PENNSYLVANIA

CITY           SKY/WX    TMP DP  RH WIND       PRES   REMARKS
SCRANTON       CLEAR     68  65  90 E5        29.98S FOG
MOUNT POCONO   CLEAR     63  61  93 NE3       30.02S FOG
ALLENTOWN      PTCLDY    71  66  84 E3        29.95R
QUAKERTOWN*    SUNNY     70  68  94 NE3       29.95S
READING        PTCLDY    72  66  81 NW3       29.93R
LANCASTER      PTCLDY    74  65  73 CALM      29.93S
COATESVILLE    SUNNY     73  68  83 N5        29.95R
POTTSTOWN      PTCLDY    70  68  93 NW3       29.95R
BLUE BELL      CLEAR     70  68  94 CALM      29.92R
DOYLESTOWN     CLEAR     70  67  90 NE5       29.93R
WILLOW GROVE   NOT AVBL
NORTH PHILA    PTCLDY    75  66  73 N3        29.93R
PHILADELPHIA   MOCLDY    79  69  71 NW3       29.91R
$$



USA.gov is the U.S. government's official web portal to all federal, state and local government web resources and services.